sat.trackr.live / text

‹ back to catalog

STARLINK-30277

NORAD 57645 · 2023-122P

PAYLOAD ACTIVE UNKNOWN

§ Identity

Operator
Country
US
Launch date
2023-08-17
Launch site
AFETR
Launch vehicle
Mass (kg)
RCS (m²)

Purposes: comms

External: N2YO · Heavens-Above · Gunter

§ Orbital elements

Epoch: 2026-09-20T03:01:47.099712Z

Period
94.27 min
Inclination
43.0051°
Eccentricity
0.0001287
Mean motion
15.27578410 rev/d
Perigee alt
482.2 km
Apogee alt
483.9 km
Semi-major
6,861.2 km
B*
6.8015e-6
RAAN
292.3250°
Arg perigee
276.6274°
Mean anomaly
83.4431°
Rev number
17,361

§ Raw data

STARLINK-302771 57645U 23122P   26263.12623958 -.00000075  00000+0  68015-5 0  99992 57645  43.0051 292.3250 0001287 276.6274  83.4431 15.27578410173618

JSON: /api/v1/satellites/57645 · /tle

For live sub-satellite position, see the globe view (requires WebGL).

§ Visibility from observer

Set your observer location to see the next 7 days of passes ≥ 10°. The values pass through the URL so the page stays shareable.

No JS? Fill the form by hand. The geolocation button needs JavaScript.